GFSFLT1_700_rhum_078.txt.gz
RH
29 25 25 23 24 29 30 38 47 62 54 36 13 11 16 42 62 68 74 82 95 97 100 88 98 100 100 90 40 50 45 34
28 23 23 23 23 26 27 31 45 62 62 34 11 13 19 51 56 74 79 95 100 98 99 87 100 99 100 99 92 71 52 44
23 23 23 23 24 26 26 29 44 57 63 36 10 14 29 56 74 79 84 89 97 100 97 100 100 98 100 100 73 50 48 51
27 24 23 23 24 24 25 29 43 54 64 41 11 17 37 59 73 79 84 93 98 99 100 100 100 100 100 95 45 43 42 49
23 26 23 23 24 24 26 36 43 50 65 41 13 19 46 66 75 84 88 94 99 100 98 100 100 100 99 96 45 46 47 49
31 22 23 22 23 24 26 39 46 52 55 37 14 22 53 63 76 84 94 92 100 99 99 99 99 100 100 94 52 43 53 57
27 30 25 22 23 24 28 40 48 58 57 36 14 22 53 63 76 83 85 90 100 98 100 99 99 99 100 62 44 46 63 62
35 30 28 24 24 28 34 39 50 57 65 45 14 21 40 67 77 90 90 91 98 100 99 98 99 99 99 75 49 56 70 73
33 28 26 24 24 29 35 44 50 60 68 50 13 19 32 51 70 80 89 92 90 98 99 100 100 100 100 98 83 95 99 97
31 30 28 26 25 27 38 40 50 65 68 45 13 17 24 43 56 68 76 77 81 91 99 100 99 100 99 100 100 100 99 99
32 31 28 28 26 26 34 45 54 65 63 43 15 16 22 31 44 50 56 67 69 76 88 100 100 98 100 97 99 99 98 99
29 32 35 34 28 28 30 42 52 63 57 47 19 16 20 26 30 36 44 66 72 71 81 97 100 100 99 99 100 100 100 100
28 30 34 34 28 29 34 47 60 65 56 51 27 16 18 22 27 31 33 35 58 82 86 94 99 97 99 99 99 99 99 98
46 32 32 33 29 32 37 57 68 55 59 52 44 24 17 19 23 27 32 35 34 44 56 68 70 70 84 96 98 96 96 99
73 54 38 35 36 38 44 66 66 56 58 51 54 49 33 20 20 22 25 30 35 42 49 58 71 78 74 76 78 77 75 82
100 74 80 62 52 61 78 81 79 66 65 63 67 63 61 54 37 25 24 25 28 33 38 52 73 60 41 50 60 64 70 73
100 99 100 94 98 98 100 100 97 76 70 77 78 77 73 72 73 73 63 55 46 43 37 38 36 34 34 40 48 52 58 59
100 100 100 100 100 100 100 100 100 81 82 82 79 81 85 79 80 81 78 76 75 75 75 77 78 72 72 77 80 87 99 100
96 95 100 100 100 100 100 100 100 95 90 87 82 84 94 84 74 73 74 73 73 73 71 68 68 71 70 73 79 90 98 96

GFSFLT1_700_rhum_081.txt.gz
RH
23 28 37 57 60 26 24 27 31 38 46 57 52 30 11 11 15 31 66 77 76 99 85 82 92 97 98 100 99 98 63 66
27 30 40 63 52 22 22 27 30 33 46 56 56 33 10 11 16 36 56 59 82 85 88 95 99 99 98 100 99 97 83 54
30 30 42 31 26 23 22 26 30 31 44 52 59 39 12 13 23 45 54 73 93 90 93 98 100 99 98 98 100 98 75 68
31 29 41 26 24 22 23 24 25 32 40 51 59 46 12 15 36 45 67 80 78 88 97 98 99 99 99 99 100 99 97 94
33 27 37 26 23 23 24 24 24 30 40 50 57 40 12 23 43 56 73 83 89 96 99 97 100 100 100 99 98 100 98 86
33 30 29 33 23 23 24 24 25 33 44 51 49 29 12 23 44 64 71 81 88 99 98 100 99 98 99 99 100 97 97 74
35 28 28 49 27 24 24 25 25 38 46 52 51 19 12 23 48 57 71 81 93 98 100 98 100 100 99 100 100 97 91 75
47 38 38 50 40 23 23 23 25 40 46 53 57 22 13 21 50 57 74 81 90 91 99 100 99 100 100 100 99 96 82 71
72 52 50 70 34 22 22 23 26 41 46 56 59 27 13 18 39 61 70 80 88 92 99 98 99 100 100 99 98 85 60 52
74 66 69 39 31 27 23 26 32 41 51 60 60 27 12 17 29 54 64 70 77 88 95 99 100 99 100 100 100 79 48 50
40 90 95 40 30 26 26 31 37 46 52 60 60 25 13 18 20 36 57 71 75 80 86 100 99 100 100 100 98 99 100 98
42 76 100 66 27 29 29 33 41 47 57 53 56 29 14 17 20 21 34 50 69 78 93 88 100 99 100 100 100 100 100 100
40 37 36 34 32 31 30 37 43 52 58 53 56 36 16 16 22 24 26 37 64 76 87 90 93 99 99 98 100 98 100 100
68 51 39 38 35 34 34 33 43 55 53 53 56 40 21 16 21 26 28 27 34 65 75 90 98 100 100 98 100 100 99 100
100 89 64 56 41 38 35 33 39 54 56 51 56 47 35 22 18 23 29 33 33 42 67 76 86 85 83 87 94 100 100 98
99 100 92 77 52 44 44 49 66 63 54 57 57 53 51 36 23 23 26 27 32 38 51 53 54 61 60 62 69 79 87 95
100 100 100 100 96 65 70 81 99 96 83 63 63 64 62 66 61 42 30 30 33 42 52 46 49 52 59 67 74 84 98 98
99 100 100 100 100 98 100 100 100 100 100 94 95 91 84 83 87 83 79 71 54 45 44 45 44 45 50 54 59 72 68 67
98 100 100 100 100 100 100 100 100 100 100 100 100 100 99 95 97 98 99 100 99 100 100 99 95 91 94 98 99 100 100 100

GFSFLT1_700_rhum_084.txt.gz
RH
33 30 23 27 32 43 53 45 29 31 28 29 38 54 55 37 13 10 13 46 49 65 64 80 86 100 99 98 99 100 100 100
31 26 22 25 32 46 58 46 32 28 24 31 38 50 60 42 20 10 14 28 70 83 82 81 98 82 94 99 100 98 100 100
34 27 24 27 38 52 62 36 25 25 27 33 38 45 58 48 25 11 25 40 62 80 87 88 89 100 99 98 100 97 100 99
37 33 27 32 42 59 57 30 21 25 31 30 33 44 58 55 21 16 38 52 67 78 79 86 90 96 100 99 99 100 100 99
37 35 29 35 37 43 60 29 22 25 26 27 31 46 56 53 15 25 40 57 87 93 80 86 86 100 100 99 100 100 99 100
32 37 32 29 34 34 33 25 24 24 24 26 32 48 49 43 13 28 48 62 76 86 88 92 100 100 98 99 100 100 100 100
36 38 34 36 33 31 30 23 26 24 25 26 39 49 41 27 14 31 54 70 76 80 91 94 97 100 99 98 100 100 100 100
51 42 33 31 45 42 32 25 25 25 26 30 44 40 47 28 14 27 59 68 77 83 92 92 99 98 100 99 100 100 100 98
63 52 40 34 38 49 42 33 25 24 26 34 46 42 48 30 15 28 63 69 79 86 91 92 98 100 100 98 98 100 100 100
61 64 48 48 54 56 49 39 29 25 27 36 47 48 52 26 15 24 49 64 78 91 86 99 97 99 100 100 100 100 99 100
73 66 75 71 80 70 46 38 26 28 31 38 51 52 57 21 16 24 36 46 55 76 91 99 98 100 100 100 98 100 100 98
55 67 68 77 77 74 71 61 37 39 37 43 51 56 56 20 16 23 36 36 48 68 80 96 100 100 98 99 100 100 99 99
59 65 66 60 50 71 82 71 56 42 44 46 53 56 49 22 15 23 28 32 38 64 77 96 100 99 100 98 99 100 100 100
87 62 62 58 55 56 58 47 46 55 55 50 52 56 53 28 16 21 25 30 32 45 70 78 90 100 100 100 100 100 99 100
99 98 98 74 75 51 52 65 48 57 49 48 50 52 52 39 20 17 22 25 29 36 49 64 82 94 98 99 99 100 100 100
98 99 99 98 96 76 72 99 64 61 55 54 54 61 55 42 25 20 21 24 29 31 37 46 67 73 89 100 100 99 100 95
86 99 100 98 100 91 98 100 100 89 58 80 67 61 61 47 37 27 25 25 29 33 34 40 47 60 67 74 80 77 89 90
85 97 100 100 100 99 100 100 100 96 92 100 98 88 70 62 57 50 51 40 32 33 32 36 43 55 64 66 74 80 83 81
92 99 99 99 100 100 100 100 100 99 99 99 99 100 95 94 93 94 98 87 82 83 54 41 43 50 61 68 75 78 83 92

GFSFLT1_700_rhum_087.txt.gz
RH
32 32 32 32 32 28 31 38 40 52 57 36 36 30 35 50 55 49 29 9 13 20 51 59 70 81 81 78 79 97 94 99
32 34 35 33 32 27 28 40 42 45 46 38 38 30 34 45 56 55 39 12 13 24 68 69 74 89 88 85 98 99 99 99
32 32 34 32 25 25 28 34 40 46 47 35 37 32 35 41 49 57 44 14 24 44 82 81 81 81 82 83 98 100 100 99
31 35 34 30 23 23 24 37 45 40 46 39 34 31 30 34 46 54 37 15 36 43 73 83 83 89 88 87 89 99 100 99
27 33 35 32 27 24 37 45 49 36 43 33 31 29 31 37 47 48 22 18 40 45 62 80 89 95 87 94 99 98 100 98
31 36 33 34 33 41 39 41 39 34 36 30 28 29 32 37 48 43 14 26 44 52 77 85 85 93 92 93 100 100 99 100
31 31 32 37 35 33 39 37 34 34 36 32 26 30 33 41 48 40 15 38 54 71 83 87 99 99 98 99 100 100 100 100
36 32 38 38 47 44 32 29 30 30 35 27 26 28 34 46 51 31 16 39 53 71 82 91 100 99 99 100 99 100 100 98
45 40 39 39 39 57 44 41 34 34 32 30 27 28 41 52 50 25 18 39 60 73 85 97 100 96 100 100 100 100 100 100
65 59 51 45 43 44 52 43 44 41 40 33 30 32 44 55 60 23 18 33 59 79 88 98 100 99 99 100 100 98 100 100
59 60 60 62 44 72 72 66 58 51 48 36 31 36 52 60 63 20 17 29 52 69 87 99 99 99 99 100 100 98 100 100
51 57 63 73 68 95 99 96 88 57 50 38 34 40 52 60 60 18 18 24 40 64 76 92 96 100 100 100 100 100 100 100
51 66 72 72 72 79 86 83 93 90 70 46 40 40 53 58 55 18 17 24 33 48 70 82 100 99 99 98 100 100 100 100
62 53 51 56 62 61 62 72 85 92 97 92 48 51 61 62 49 22 18 22 27 31 53 88 99 100 100 100 100 100 100 100
97 96 76 63 54 56 65 68 83 91 97 72 60 57 57 58 52 31 20 18 22 26 34 59 88 90 98 100 100 100 100 100
94 98 98 98 99 85 79 76 86 98 99 80 90 64 61 68 55 33 22 20 23 28 31 46 63 89 100 100 100 99 100 100
88 93 99 99 99 98 100 100 98 100 100 100 99 79 73 78 63 35 25 22 24 29 32 35 49 70 90 96 100 100 99 92
90 94 90 100 100 100 100 100 100 100 99 99 100 100 99 96 74 46 35 29 26 27 29 33 44 59 73 82 91 92 82 97
99 97 94 96 100 100 100 96 100 100 99 100 100 94 100 100 88 57 64 41 37 38 35 29 35 54 86 94 90 88 96 98

GFSFLT1_700_rhum_093.txt.gz
RH
28 29 29 31 31 28 26 22 29 34 34 40 29 68 90 78 41 40 36 40 40 47 49 26 10 12 20 32 61 71 91 94
26 26 23 28 32 32 32 26 25 31 33 34 33 29 63 82 61 46 40 38 39 46 50 39 15 13 21 42 61 73 82 93
20 25 23 26 30 34 34 31 28 27 28 29 29 32 56 77 83 54 43 41 38 44 49 42 18 18 23 49 62 72 81 93
23 22 20 26 24 31 33 34 30 30 29 31 31 36 61 92 76 51 48 42 40 42 45 33 17 32 50 56 73 82 84 94
22 21 20 25 28 25 30 37 34 32 32 32 32 31 50 54 50 51 51 44 41 44 38 23 18 56 60 72 76 85 91 88
41 31 35 31 30 28 30 36 36 36 33 34 32 30 50 70 73 60 47 46 39 42 36 16 26 67 68 81 84 88 92 94
72 54 50 33 31 30 32 34 37 35 34 32 30 29 50 64 66 51 50 46 40 39 31 17 31 46 64 82 84 88 88 87
77 76 54 42 35 30 31 32 36 32 28 26 26 40 56 74 60 49 47 45 40 40 22 19 41 51 60 70 80 88 88 87
83 81 71 51 38 34 39 39 41 28 27 32 56 57 70 53 51 42 47 45 42 39 17 23 50 72 79 84 88 91 86 89
99 96 76 58 53 46 42 46 43 49 35 68 78 72 54 52 47 41 44 44 43 41 17 33 57 65 79 92 99 98 98 100
91 74 67 62 57 57 47 50 47 50 55 70 90 72 58 58 43 36 45 45 45 37 18 30 50 70 81 92 93 100 98 100
83 76 72 68 61 56 58 58 57 72 70 90 89 74 67 62 43 41 47 51 49 29 20 24 34 61 91 87 100 100 100 100
93 90 95 95 72 69 66 67 77 84 94 95 98 87 71 66 45 45 48 57 53 25 20 23 33 60 95 96 100 100 100 99
86 89 96 93 97 83 80 80 85 82 89 98 100 98 86 68 46 46 45 55 55 24 20 24 30 51 98 100 99 100 100 99
81 92 92 98 99 100 94 96 92 98 97 94 96 98 97 69 46 45 42 51 59 29 22 29 33 44 91 100 100 99 100 100
87 84 89 96 100 99 100 97 100 93 100 96 99 99 99 80 61 55 58 58 64 32 23 27 33 39 80 99 100 100 99 100
88 92 90 93 100 100 98 100 98 100 100 91 99 100 100 92 73 66 76 73 70 51 27 28 31 33 77 94 98 100 100 99
83 86 87 85 97 100 100 100 100 100 99 98 99 88 98 96 98 84 76 72 69 74 52 30 33 37 66 83 99 100 99 99
86 83 82 82 89 99 99 100 96 99 99 100 91 100 100 94 97 91 76 73 83 79 76 40 41 43 66 98 96 99 100 100

GFSFLT1_700_rhum_096.txt.gz
RH
17 24 25 28 29 32 31 29 29 23 25 38 41 42 41 52 71 53 43 42 39 40 49 50 48 29 11 13 23 43 59 97
30 22 25 25 27 28 28 30 29 30 23 36 35 34 35 35 53 71 50 47 46 42 48 53 50 41 19 13 21 32 98 90
40 37 26 21 24 26 23 26 28 32 31 26 38 39 36 36 37 52 84 64 52 44 48 52 52 43 30 16 17 33 65 92
50 56 32 26 21 22 24 25 28 32 34 31 27 38 37 41 45 45 89 86 57 48 48 49 51 44 28 19 23 46 62 78
47 51 45 23 20 19 23 24 25 31 35 32 28 28 35 36 35 48 98 95 59 53 51 47 48 41 20 22 54 58 66 76
52 50 50 31 32 24 20 26 24 30 33 34 31 30 30 32 34 64 77 76 74 60 55 44 45 32 17 32 68 64 73 90
74 88 84 56 46 29 33 31 28 26 30 37 34 32 32 32 36 58 87 68 82 62 48 48 45 30 18 38 74 72 79 84
89 88 90 69 47 42 33 32 30 30 34 37 36 34 34 34 35 67 64 56 68 53 48 50 44 26 22 41 71 71 85 88
99 99 77 73 63 47 36 34 31 32 34 36 35 34 33 35 53 59 75 57 58 52 56 50 47 21 27 41 53 70 91 89
99 99 98 78 68 54 42 38 36 39 44 41 38 34 33 42 58 86 76 53 56 56 54 51 45 20 34 46 63 74 81 86
92 92 99 79 68 54 58 54 48 51 58 59 40 36 44 55 68 97 65 56 51 53 54 53 34 20 29 55 76 88 90 94
72 76 85 82 81 63 56 61 61 60 67 72 71 65 68 83 92 75 64 53 49 55 55 56 22 21 31 63 84 90 89 93
66 66 79 84 99 72 63 62 71 68 70 70 68 79 83 72 93 87 69 51 48 60 58 52 20 21 32 61 53 84 91 94
55 70 70 80 97 96 79 75 78 79 80 70 73 68 86 82 91 82 70 58 62 63 58 45 21 22 28 32 42 97 95 100
83 80 74 90 95 100 99 99 97 99 97 96 95 99 100 99 99 87 79 61 62 69 62 35 23 25 25 33 52 81 100 98
80 78 81 83 96 99 100 100 99 99 92 72 98 99 99 100 98 92 73 64 72 72 64 32 25 25 27 29 51 98 95 99
83 79 82 83 95 100 98 100 99 100 100 87 94 100 100 99 98 99 76 80 74 72 61 46 27 27 27 27 52 98 100 100
86 78 80 84 96 100 100 99 99 98 99 100 98 100 99 100 93 100 99 93 91 76 72 66 47 30 31 34 46 83 98 100
94 88 87 86 88 100 100 99 99 98 100 100 97 99 98 100 100 95 100 99 91 83 79 70 70 64 36 38 73 96 82 96

GFSFLT1_700_rhum_102.txt.gz
RH
14 14 13 13 14 15 15 18 22 21 20 22 23 27 63 76 72 58 41 44 33 34 40 49 46 40 41 40 41 34 12 13
17 18 16 14 12 12 15 16 16 21 27 25 20 19 22 36 62 67 37 33 36 39 60 80 57 41 45 46 48 43 20 11
25 28 29 31 29 19 14 17 24 27 22 29 30 29 25 22 25 41 59 43 41 42 54 87 67 44 46 50 52 50 37 16
31 24 20 21 26 30 26 28 25 26 29 25 29 29 29 29 25 24 42 48 44 38 50 87 71 51 47 51 52 56 49 33
27 24 22 24 25 29 41 37 33 35 36 27 25 27 28 30 30 29 25 48 44 42 55 61 86 58 53 52 52 57 58 42
32 31 28 46 38 40 44 50 47 40 38 25 24 25 26 25 27 31 29 32 43 39 44 58 99 84 64 54 59 58 63 56
36 37 43 52 62 61 53 60 58 61 43 25 24 22 23 25 27 33 31 25 36 44 58 54 60 48 53 69 62 67 69 64
35 39 51 51 60 60 61 66 54 54 41 25 28 20 22 23 27 31 37 30 39 44 48 45 48 61 60 54 50 64 69 64
39 28 47 51 55 62 72 69 51 52 48 36 29 23 21 23 27 34 36 33 31 40 50 57 59 78 83 51 62 68 73 59
32 27 37 47 50 63 76 72 67 54 41 36 33 29 24 27 29 42 40 31 31 40 59 63 67 69 60 64 72 71 72 44
34 34 43 46 42 55 75 89 59 61 44 45 41 39 34 34 45 50 48 35 33 38 56 77 75 100 99 100 78 73 73 42
37 38 47 48 54 69 81 79 73 65 53 57 51 48 46 48 53 55 55 48 41 45 85 87 97 99 97 95 68 71 53 40
39 22 39 43 59 73 69 86 72 79 69 68 67 61 54 62 63 64 58 58 53 54 75 91 97 78 93 79 75 69 32 42
22 38 56 51 55 63 69 78 100 99 81 86 82 81 78 73 72 85 72 72 66 76 78 79 77 99 86 79 72 49 35 48
58 90 72 69 62 58 68 89 95 98 100 98 97 92 93 99 89 100 99 97 82 79 77 74 75 99 89 80 73 44 62 45
96 96 80 74 76 66 71 97 98 96 99 99 98 100 93 100 99 99 100 98 94 91 83 76 79 83 81 81 51 45 50 37
97 93 91 88 81 76 78 95 98 100 99 98 97 98 100 99 100 95 94 96 95 93 93 95 70 74 83 66 43 39 36 35
97 92 90 91 84 76 82 93 98 98 99 95 100 99 100 100 92 99 100 99 97 94 99 100 83 87 83 59 42 40 36 32
94 86 98 91 84 84 89 97 98 99 100 100 98 99 99 99 100 99 99 100 100 100 99 96 100 99 77 49 45 42 35 32

GFSFLT1_700_rhum_108.txt.gz
RH
45 72 68 33 22 20 18 17 18 19 20 23 26 27 28 31 47 68 72 58 45 44 38 35 32 31 39 41 40 41 41 36
62 80 70 37 15 13 12 11 10 9 10 12 17 20 22 25 26 26 32 50 68 66 55 44 41 35 37 38 45 45 41 42
72 92 53 22 21 14 13 11 10 10 8 6 4 4 5 11 17 22 25 24 40 60 68 73 79 76 50 44 42 33 39 46
83 85 54 33 23 18 14 11 9 8 7 8 7 9 10 7 5 7 10 15 20 24 29 61 68 78 98 80 64 39 44 52
91 72 33 27 21 19 18 18 16 13 16 20 20 20 24 25 20 18 16 23 27 16 20 28 35 54 82 83 96 57 51 57
66 41 34 28 21 18 19 22 23 22 20 22 22 26 28 31 34 36 33 29 49 30 18 22 29 45 49 62 59 71 66 50
54 34 35 30 19 14 13 13 20 26 30 33 34 36 38 37 38 43 44 35 39 99 50 29 30 30 31 35 62 60 70 59
49 40 37 33 27 23 13 19 30 34 36 42 48 55 54 34 29 34 43 37 55 65 81 40 35 31 35 34 47 99 92 81
49 46 41 37 34 31 26 10 39 39 37 49 67 68 56 35 37 32 29 38 48 53 89 56 35 31 30 48 43 96 79 83
55 49 42 40 41 38 32 4 33 42 43 47 65 67 55 45 40 43 36 24 25 48 47 54 35 29 32 50 50 80 82 66
54 51 47 46 45 36 7 4 20 39 42 47 53 67 58 50 50 46 38 45 34 29 48 60 40 40 41 45 55 57 53 68
60 57 52 42 37 7 4 18 36 41 40 49 46 64 69 56 63 65 66 57 50 40 56 59 45 43 41 43 51 82 94 88
43 33 21 10 6 6 21 56 53 42 41 46 45 50 66 69 70 69 74 69 85 67 61 68 65 65 58 54 48 58 61 61
23 17 12 15 10 31 65 68 61 47 49 49 57 66 78 80 77 75 74 78 90 95 99 94 82 76 59 52 57 56 55 76
30 27 25 16 41 74 73 72 67 66 66 62 62 78 86 79 92 91 76 73 77 90 83 99 84 100 68 49 52 68 80 74
40 36 27 30 74 76 80 80 79 76 78 78 85 92 88 94 92 90 99 87 87 73 82 85 83 94 82 82 90 86 86 92
51 53 44 88 78 76 89 89 87 84 85 84 93 99 96 98 98 97 99 94 92 99 90 88 97 90 82 70 86 94 96 83
61 74 94 87 86 94 96 92 88 93 95 95 95 98 98 100 96 98 100 100 99 100 100 99 100 95 94 87 83 98 92 85
94 97 97 96 99 97 97 96 94 99 100 100 98 94 97 98 98 98 99 99 100 99 99 98 99 100 99 100 93 98 99 90

GFSFLT1_700_rhum_111.txt.gz
RH
32 32 34 36 36 35 34 22 20 19 19 22 24 26 28 29 32 49 65 77 73 75 68 49 44 43 37 32 29 29 30 36
32 34 36 39 39 45 39 19 16 14 13 14 16 19 21 22 24 27 28 32 54 67 67 66 71 56 44 40 37 36 40 42
36 42 55 71 58 52 29 16 17 14 11 8 5 4 5 7 11 16 20 21 22 23 30 43 61 69 76 59 54 57 45 52
41 54 73 74 57 40 21 20 18 15 12 10 7 5 3 3 3 3 3 4 7 12 17 34 34 38 60 76 88 91 88 80
43 54 88 67 47 22 27 27 24 22 19 15 14 10 7 9 6 6 6 10 8 5 6 29 43 40 46 60 80 91 96 78
63 84 81 57 27 25 19 15 14 13 13 13 13 13 12 8 10 13 17 20 26 23 17 16 27 46 57 42 41 56 63 71
84 80 67 44 27 28 23 19 12 9 9 11 11 13 15 15 17 18 23 27 32 34 38 39 32 44 72 56 43 45 64 65
88 72 51 42 33 34 28 28 26 24 12 8 16 17 20 20 30 34 30 22 22 25 36 50 48 44 88 99 64 59 56 74
72 45 33 36 39 33 32 33 23 17 8 4 19 20 24 28 35 43 38 29 30 26 26 40 38 43 79 83 67 72 56 60
50 34 39 44 43 35 27 16 7 2 2 4 25 28 30 34 46 54 45 38 36 36 25 33 25 42 59 80 90 71 54 55
63 54 54 52 47 38 22 3 2 2 3 9 31 34 30 34 51 60 51 47 44 39 38 28 26 56 80 87 80 66 43 53
74 44 42 44 34 15 4 3 3 5 10 26 37 35 35 35 47 64 64 58 59 59 55 47 36 68 99 87 63 50 46 62
28 15 9 9 8 11 10 9 13 22 30 41 36 38 47 44 49 58 72 70 64 73 73 77 59 75 96 92 68 56 64 76
19 18 15 13 18 20 18 19 49 62 54 47 42 52 54 56 62 62 78 80 75 70 78 75 77 81 99 95 86 72 69 59
21 20 27 24 21 24 21 45 66 62 59 64 67 67 68 72 72 75 69 74 66 84 80 84 82 98 99 99 93 80 66 72
25 32 34 28 30 34 53 67 73 76 79 84 84 83 79 76 78 81 79 93 84 98 95 99 99 94 92 88 98 96 76 73
59 54 38 38 42 66 76 87 91 89 88 94 93 95 92 100 100 96 89 86 98 100 100 94 92 90 99 98 87 87 92 77
59 62 53 70 83 90 96 96 94 100 100 97 99 100 98 98 98 100 100 94 100 100 100 100 88 93 100 82 89 87 97 96
65 71 83 90 94 96 95 95 95 99 97 97 100 99 98 99 97 98 97 96 98 100 100 100 99 99 100 97 99 98 96 100

GFSFLT1_700_rhum_114.txt.gz
RH
34 32 29 30 32 33 34 34 33 33 34 34 25 27 30 29 29 34 59 78 80 77 74 77 89 90 80 73 45 39 34 31
39 32 30 31 32 33 34 34 35 35 23 22 20 22 24 25 25 25 28 30 32 51 72 74 70 77 81 72 71 70 65 40
41 35 32 33 33 35 37 37 37 40 19 14 12 11 11 13 16 19 21 22 24 25 27 29 35 51 69 74 79 80 74 82
54 43 35 34 40 49 52 40 43 36 14 12 10 8 7 7 7 7 7 8 11 14 16 18 21 24 25 31 55 73 81 90
80 64 40 56 75 70 60 48 29 17 17 17 17 16 13 12 8 6 5 6 5 4 4 4 3 3 6 14 45 53 59 65
92 62 50 80 71 59 35 25 21 18 15 12 11 11 11 11 10 8 6 7 9 10 10 12 13 14 12 7 5 39 53 53
91 72 83 71 60 45 30 35 32 18 19 17 14 14 6 7 7 8 10 10 13 17 16 18 20 26 28 26 21 19 45 57
99 90 79 50 40 53 48 60 30 23 19 16 16 14 13 6 5 6 11 20 29 32 30 30 28 32 37 38 39 46 38 54
99 96 59 59 71 59 39 34 25 16 9 6 4 3 4 4 5 6 14 18 27 31 28 23 21 22 20 27 44 61 57 63
98 96 95 79 49 45 45 36 25 12 4 2 2 1 2 2 11 13 17 21 28 39 40 36 33 26 22 27 35 57 60 61
97 98 88 57 45 45 35 23 11 6 3 2 2 1 3 9 14 19 21 23 30 41 47 43 36 26 25 25 36 49 70 84
60 49 43 36 14 5 4 4 5 3 2 3 3 4 15 26 25 23 22 29 30 41 54 50 49 44 43 44 45 45 85 96
35 26 16 9 6 6 6 9 10 8 8 11 26 32 28 28 29 30 29 36 40 44 63 65 61 66 68 59 56 66 83 96
34 29 20 15 20 18 18 18 18 17 33 53 51 47 41 41 38 38 42 49 54 52 63 79 72 71 79 76 86 98 96 94
38 30 22 27 32 29 26 27 26 42 62 64 68 68 65 59 56 49 52 58 67 65 65 80 75 82 86 79 81 98 97 93
31 30 37 41 37 38 34 39 64 81 80 78 79 79 78 78 74 68 69 76 77 74 85 99 94 95 87 92 95 99 94 87
34 48 54 54 52 63 77 88 94 90 85 86 88 89 92 93 91 96 100 100 93 94 100 100 99 98 100 96 99 100 97 100
59 65 67 74 82 89 96 99 98 96 94 93 94 96 96 94 97 100 98 92 94 100 100 100 99 98 100 100 100 98 100 100
74 76 79 84 89 95 99 100 99 96 96 96 96 95 96 97 96 96 96 96 96 98 98 100 99 98 99 100 100 99 100 98